Weather History for Eastover, SC

Change the Weather History Date:

Tuesday, September 11, 2012

  Actual Average Record
Temperature  
Mean Temperature 68 °F -  
Max Temperature 81 °F 82 °F 96 °F (2007)
Min Temperature 57 °F 63 °F 55 °F (1998)
Cooling Degree Days 4    
Growing Degree Days 18 (Base 50)    
Moisture  
Dew Point 58 °F    
Average Humidity 74    
Maximum Humidity 97    
Minimum Humidity 40    
Precipitation  
Precipitation 0.00 in - - ()
Sea Level Pressure  
Sea Level Pressure 30.23 in    
Wind  
Wind Speed 2 mph (ENE)    
Max Wind Speed 7 mph    
Max Gust Speed -    
Visibility 10 miles    
Events      
Averages and records for this station are not official NWS values.
T = Trace of Precipitation, MM = Missing Value Source: NWS Daily Summary

Daily Weather History Graph

Daily Weather History Graph

Search for Another Location

Airport:

Trip Planner

Search our weather history database for the weather conditions in past years. The results will help you decide how hot, cold, wet, or windy it might be!

Date:

Astronomy

Sep. 11, 2012 Rise Set
Actual Time 7:04 AM EDT 7:34 PM EDT
Civil Twilight 6:38 AM EDT 7:59 PM EDT
Nautical Twilight 6:09 AM EDT 8:29 PM EDT
Astronomical Twilight 5:39 AM EDT 8:59 PM EDT
Moon 2:30 AM EDT (9/11) 4:34 PM EDT (9/11)
Length of Visible Light 13h 20m
Length of Day
12h 30m
Waning Crescent, 21% of the Moon is Illuminated
Sep 11
Waning Crescent
Sep 15
New
Sep 22
First Quarter
Sep 29
Full
Oct 8
Last Quarter

Hourly Weather History & Observations

Time (EDT) Temp. Heat Index Dew Point Humidity Pressure Visibility Wind Dir Wind Speed Gust Speed Precip Events Conditions
12:55 AM 60.3 °F - 59.0 °F 96% 30.16 in 10.0 mi Calm Calm - N/A   Clear
1:55 AM 58.8 °F - 57.7 °F 96% 30.16 in 10.0 mi East 3.5 mph - N/A   Clear
2:55 AM 59.7 °F - 57.4 °F 92% 30.15 in 10.0 mi Calm Calm - N/A   Clear
3:55 AM 58.5 °F - 57.4 °F 96% 30.16 in 10.0 mi Calm Calm - N/A   Clear
4:55 AM 57.9 °F - 57.2 °F 97% 30.17 in 10.0 mi Calm Calm - N/A   Scattered Clouds
5:55 AM 57.7 °F - 56.1 °F 94% 30.19 in 10.0 mi Calm Calm - N/A   Clear
6:55 AM 58.3 °F - 57.2 °F 96% 30.22 in 10.0 mi Calm Calm - N/A   Scattered Clouds
7:55 AM 61.2 °F - 59.9 °F 96% 30.24 in 10.0 mi Calm Calm - N/A   Mostly Cloudy
8:55 AM 66.9 °F - 59.2 °F 76% 30.25 in 10.0 mi East 3.5 mph - N/A   Mostly Cloudy
9:55 AM 70.3 °F - 60.3 °F 70% 30.27 in 10.0 mi Calm Calm - N/A   Mostly Cloudy
10:55 AM 72.0 °F - 58.6 °F 63% 30.30 in 10.0 mi East 6.9 mph - N/A   Mostly Cloudy
11:55 AM 74.3 °F - 59.4 °F 60% 30.30 in 10.0 mi East 3.5 mph - N/A   Mostly Cloudy
12:55 PM 76.6 °F - 55.8 °F 48% 30.29 in 10.0 mi Calm Calm - N/A   Scattered Clouds
1:55 PM 80.1 °F 80.2 °F 55.6 °F 43% 30.27 in 10.0 mi Variable 3.5 mph - N/A   Partly Cloudy
2:55 PM 80.1 °F 80.1 °F 54.5 °F 41% 30.25 in 10.0 mi ENE 5.8 mph - N/A   Partly Cloudy
3:55 PM 80.6 °F 80.4 °F 54.1 °F 40% 30.24 in 10.0 mi Calm Calm - N/A   Scattered Clouds
4:55 PM 79.9 °F - 54.7 °F 42% 30.23 in 10.0 mi East 4.6 mph - N/A   Partly Cloudy
5:55 PM 79.2 °F - 55.8 °F 44% 30.23 in 10.0 mi ENE 5.8 mph - N/A   Partly Cloudy
6:55 PM 75.9 °F - 58.5 °F 55% 30.23 in 10.0 mi East 5.8 mph - N/A   Partly Cloudy
7:55 PM 68.7 °F - 61.2 °F 77% 30.24 in 10.0 mi ENE 3.5 mph - N/A   Clear
8:55 PM 65.3 °F - 61.2 °F 86% 30.26 in 10.0 mi ENE 3.5 mph - N/A   Clear
9:55 PM 63.1 °F - 60.1 °F 90% 30.27 in 10.0 mi ENE 4.6 mph - N/A   Clear
10:55 PM 62.2 °F - 59.4 °F 90% 30.27 in 10.0 mi ENE 3.5 mph - N/A   Clear
11:55 PM 61.7 °F - 59.2 °F 91% 30.28 in 10.0 mi Calm Calm - N/A   Clear